Location: Unspecified
(0.0000°N, 0.0000°E)
Time: 23:20:06
(UTC+01:00)

IUS-9 SRM-1 - Visible Passes

Search period start: 16 December 2017 00:00
Search period end: 26 December 2017 00:00
Orbit: 222 x 19542 km, 26.4° (Epoch: 15 December)

Date Brightness Start Highest point End Pass type
(mag) Time Alt. Az. Time Alt. Az. Time Alt. Az.
16 Dec 6.5 02:22:10 15° S 02:25:36 17° SSE 02:39:34 10° ESE visible
18 Dec 7.4 06:05:01 10° SW 06:44:35 62° SE 10:36:07 10° ENE visible
19 Dec 7.1 04:56:54 10° SW 05:19:57 47° SE 09:11:25 10° ENE visible
20 Dec 6.8 03:49:20 10° SSW 04:03:26 33° SSE 07:20:26 10° ENE visible
20 Dec 3.1 20:34:06 10° NW 20:39:58 42° NNW 20:39:58 42° NNW visible
21 Dec 6.6 02:42:59 12° SSW 02:50:21 21° SSE 03:22:55 10° ESE visible
21 Dec 4.3 19:18:33 10° NW 19:31:40 34° N 19:35:16 10° ENE visible
22 Dec 6.8 01:38:05 11° SSE 01:38:57 11° SSE 01:42:11 10° SE visible
23 Dec 7.5 06:26:11 10° SW 07:13:05 72° SE 11:00:57 10° ENE visible
24 Dec 7.2 05:17:18 10° SW 05:44:49 57° SE 09:39:35 10° ENE visible
25 Dec 6.9 04:09:04 10° SW 04:26:21 41° SE 08:03:41 10° ENE visible
25 Dec 3.6 20:55:19 10° WNW 20:59:11 34° W 20:59:11 34° W visible
